Location: Mahannah Oil Field
(37.4664°N, 96.6003°W)
Time: 02:09:18
(UTC+00:00)

deb Explorer IX - Pass Details

Date: 22 January 2021
Orbit: 537 x 1102 km, 38.8° (Epoch: 25 February)

Event Time Altitude Azimuth Distance (km) Brightness Sun altitude
Rises 07:24:03 0° 271° (W) 2,843 - -69.5°
Reaches altitude 10° 07:28:16 10° 233° (SW) 1,841 - -69.0°
Maximum altitude 07:29:12 11° 219° (SW) 1,782 - -68.9°
Drops below altitude 10° 07:30:08 10° 206° (SSW) 1,810 - -68.8°
Sets 07:34:07 0° 167° (SSE) 2,664 - -68.4°
